DIAMANT R/B, 1805

Orbit data source: Space-Track

DIAMANT R/B, 1805 is space debris in LEO originally from a launch on Fri, 26 Nov 1965 UTC launched from the Hamma Guira Space Track Range (HGSTR). Debris objects in space refer to the collection of defunct objects orbiting the Earth. Examples of debris include non-operational satellites, rocket bodies, and fragments generated from explosions, collisions, or faulty payload assembly.

Loading next visibility...
Identifier
1805, 1965-096B
Orbit
LEO
Last TLE update
21 hours ago
Origin
Manufacturer
Sud
Mission
Spacecraft
Bus & Motor
RUBIS, Unknown motor
Mass
65 kg wet, 65 kg dry
Launch date (UTC)
1965-11-26 (60 years ago)
Launch vehicle
Unknown
Launch site
Hamma Guira Space Track Range (HGSTR)
Object type
Payload
Rocket body
Debris
Shape & HBR
Cyl, 2.1 m
Radar Cross Section
1.347 m², Large (>1 m²)

Expand to show TLE details & history

TLE from 21 hours ago
0 DIAMANT R/B
1  1805U 65096B   25182.19299684  .00000528  00000-0  11092-3 0  9997
2  1805  34.2505   1.9673 0589438 329.3022  27.4373 13.86463819955520
Epoch: 2025-07-01T04:37Z
TLE epoch observation values (Epoch: 2025-07-01T04:37:54.926Z)
Latitude
-0.00002°
Longitude
12.99644°
Altitude
562.992 km
Speed
7.774 km/s
True Right ascension
00h 07m 52s
True Declination
0° 00' 00"
Sunlit
Object was in daylight at epoch
Visualization orbit readout
Latitude
3.83306°
Longitude
14.17038°
Altitude
563.594 km
Speed
7.774 km/s
Apparent Right ascension
00h 34m 21s
Apparent Declination
-17° 04' 41"
Sunlit
Object is in daylight
Visualization observer readout
Local Sidereal Time
13:05:14
Azimuth
18.549° NNE
Elevation
-66.201°
Doppler factor
1
Orbital elements
Apogee altitude
1,375.838 km
Perigee altitude
512.622 km
Semi-major axis
7,322.367 km
Eccentricity
0.05894
Inclination
34.2505°
RAAN
1.9673°
Arg. of periapsis
329.3022°
True anomaly
Unknown
Mean anomaly
27.4373°
Eccentric anomaly
Unknown
Mean motion
3.4639 °/min
Orbital period
103.93 mins
BSTAR
0.00011092
Loading maneuver chart data...
Loading SW <> Apogee altitude chart data...
Loading historical data...
Loading historical data...
Loading historical data...
Loading historical data...
Loading historical data...
Loading historical data...
Loading historical data...
Other satellites on launch #96 in the year 1965 (1965-11-26 UTC)

DIAMANT R/B Visibility forecast

Observer location: undefined°, undefined°

Span
Click to sort rows by Start time (UTC) header in descending order
Start Az.
Max El. time (UTC)
Max El. Az.
Max El.
End time (UTC)
End Az.
9 mins2025-07-02 15:25:19.631Z209.815° SW2025-07-02 15:29:19.631Z154.497° SSE26.061°2025-07-02 15:34:19.631Z100.004° ESE
11 mins2025-07-02 17:14:19.631Z242.757° WSW2025-07-02 17:19:19.631Z158.736° S37.922°2025-07-02 17:25:19.631Z101.165° ESE
12 mins2025-07-02 19:04:19.631Z255.313° W2025-07-02 19:09:19.631Z181.305° SSW37.366°2025-07-02 19:16:19.631Z119.154° SE
11 mins2025-07-02 20:54:19.631Z252.555° W2025-07-02 20:59:19.631Z201.993° SSW26.67°2025-07-02 21:05:19.631Z152.371° SSE
|